| time (UTC) | temp F | wind direction | speed knots | gust knots | rain 1hr in | rain 24hr in | rain mn in | humidity % | barometer mb |
| 20260506014015 | 74 | 180 | 2.6 | 7.0 | 0.00 | 0.00 | 0.00 | 46 | 1008.4 |
| 20260506013515 | 74 | 203 | 1.7 | 5.2 | 0.00 | 0.00 | 0.00 | 46 | 1008.3 |
| 20260506013015 | 75 | 180 | 2.6 | 8.7 | 0.00 | 0.00 | 0.00 | 45 | 1008.2 |
| 20260506012515 | 75 | 180 | 3.5 | 12.2 | 0.00 | 0.00 | 0.00 | 44 | 1008.2 |
| 20260506012015 | 75 | 180 | 2.6 | 10.4 | 0.00 | 0.00 | 0.00 | 44 | 1008.2 |
| 20260506011515 | 75 | 203 | 4.3 | 11.3 | 0.00 | 0.00 | 0.00 | 44 | 1008.0 |
| 20260506011015 | 75 | 203 | 2.6 | 12.2 | 0.00 | 0.00 | 0.00 | 45 | 1008.0 |
| 20260506010515 | 75 | 203 | 3.5 | 7.0 | 0.00 | 0.00 | 0.00 | 44 | 1007.9 |
| 20260506010015 | 75 | 203 | 2.6 | 7.0 | 0.00 | 0.00 | 0.00 | 44 | 1007.7 |
| 20260506005515 | 74 | 180 | 3.5 | 11.3 | 0.00 | 0.00 | 0.00 | 44 | 1007.7 |
| 20260506005015 | 74 | 180 | 1.7 | 7.0 | 0.00 | 0.00 | 0.00 | 45 | 1007.7 |
| 20260506004515 | 74 | 180 | 1.7 | 5.2 | 0.00 | 0.00 | 0.00 | 45 | 1007.7 |
| 20260506004015 | 74 | 180 | 2.6 | 5.2 | 0.00 | 0.00 | 0.00 | 44 | 1007.6 |
| 20260506003515 | 75 | 180 | 0.9 | 4.3 | 0.00 | 0.00 | 0.00 | 45 | 1007.6 |
| 20260506003015 | 75 | 180 | 2.6 | 9.6 | 0.00 | 0.00 | 0.00 | 45 | 1007.6 |
| 20260506002515 | 75 | 180 | 1.7 | 7.0 | 0.00 | 0.00 | 0.00 | 46 | 1007.7 |
| 20260506002015 | 75 | 158 | 1.7 | 5.2 | 0.00 | 0.00 | 0.00 | 44 | 1007.4 |
| 20260506001515 | 75 | 180 | 1.7 | 7.0 | 0.00 | 0.00 | 0.00 | 44 | 1007.5 |
| 20260506001015 | 75 | 180 | 3.5 | 7.0 | 0.00 | 0.00 | 0.00 | 43 | 1007.3 |
| 20260506000515 | 75 | 203 | 2.6 | 8.7 | 0.00 | 0.00 | 0.00 | 43 | 1007.3 |
| 20260506000015 | 76 | 180 | 0.9 | 3.5 | 0.00 | 0.00 | 0.00 | 43 | 1007.4 |
| 20260505235515 | 76 | 203 | 1.7 | 5.2 | 0.00 | 0.00 | 0.00 | 43 | 1007.3 |
| 20260505235015 | 76 | 203 | 1.7 | 7.0 | 0.00 | 0.00 | 0.00 | 42 | 1007.3 |
| 20260505234515 | 77 | 180 | 2.6 | 7.0 | 0.00 | 0.00 | 0.00 | 42 | 1007.2 |
| 20260505234015 | 77 | 203 | 4.3 | 9.6 | 0.00 | 0.00 | 0.00 | 41 | 1007.2 |
| 20260505233515 | 77 | 203 | 3.5 | 12.2 | 0.00 | 0.00 | 0.00 | 41 | 1007.1 |
| 20260505233015 | 77 | 180 | 3.5 | 11.3 | 0.00 | 0.00 | 0.00 | 41 | 1007.0 |
| 20260505232515 | 77 | 203 | 5.2 | 11.3 | 0.00 | 0.00 | 0.00 | 41 | 1006.9 |
| 20260505232015 | 78 | 203 | 5.2 | 12.2 | 0.00 | 0.00 | 0.00 | 41 | 1006.8 |
| 20260505231515 | 78 | 203 | 5.2 | 14.8 | 0.00 | 0.00 | 0.00 | 41 | 1006.8 |
| 20260505231015 | 78 | 203 | 5.2 | 13.0 | 0.00 | 0.00 | 0.00 | 40 | 1006.6 |
| 20260505230515 | 78 | 203 | 4.3 | 11.3 | 0.00 | 0.00 | 0.00 | 40 | 1006.7 |
| 20260505230015 | 78 | 180 | 4.3 | 12.2 | 0.00 | 0.00 | 0.00 | 40 | 1006.6 |
| 20260505225515 | 78 | 203 | 5.2 | 16.5 | 0.00 | 0.00 | 0.00 | 40 | 1006.6 |
| 20260505225015 | 79 | 180 | 6.1 | 13.9 | 0.00 | 0.00 | 0.00 | 39 | 1006.5 |
| 20260505224515 | 79 | 203 | 7.0 | 13.9 | 0.00 | 0.00 | 0.00 | 39 | 1006.4 |
| 20260505224015 | 79 | 203 | 6.1 | 15.6 | 0.00 | 0.00 | 0.00 | 39 | 1006.3 |
| 20260505223515 | 79 | 203 | 4.3 | 12.2 | 0.00 | 0.00 | 0.00 | 38 | 1006.3 |
| 20260505223015 | 79 | 203 | 5.2 | 14.8 | 0.00 | 0.00 | 0.00 | 38 | 1006.2 |
| 20260505222517 | 79 | 203 | 3.5 | 10.4 | 0.00 | 0.00 | 0.00 | 39 | 1006.2 |
| 20260505222017 | 80 | 203 | 6.1 | 20.9 | 0.00 | 0.00 | 0.00 | 38 | 1006.2 |
| 20260505221517 | 80 | 203 | 7.0 | 16.5 | 0.00 | 0.00 | 0.00 | 38 | 1006.1 |
| 20260505221017 | 80 | 203 | 6.1 | 13.9 | 0.00 | 0.00 | 0.00 | 36 | 1006.1 |
| 20260505220517 | 81 | 203 | 6.1 | 15.6 | 0.00 | 0.00 | 0.00 | 36 | 1006.1 |
| 20260505220017 | 82 | 225 | 4.3 | 8.7 | 0.00 | 0.00 | 0.00 | 35 | 1006.0 |
| 20260505215517 | 82 | 203 | 7.0 | 15.6 | 0.00 | 0.00 | 0.00 | 35 | 1005.9 |
| 20260505215017 | 82 | 203 | 6.1 | 16.5 | 0.00 | 0.00 | 0.00 | 35 | 1005.8 |
| 20260505214517 | 82 | 203 | 6.1 | 14.8 | 0.00 | 0.00 | 0.00 | 35 | 1005.7 |
| 20260505214017 | 82 | 203 | 6.1 | 17.4 | 0.00 | 0.00 | 0.00 | 36 | 1005.7 |
| 20260505213517 | 82 | 225 | 6.1 | 15.6 | 0.00 | 0.00 | 0.00 | 35 | 1005.8 |
| 20260505213017 | 83 | 203 | 6.1 | 14.8 | 0.00 | 0.00 | 0.00 | 34 | 1005.8 |
| 20260505212517 | 83 | 203 | 7.0 | 16.5 | 0.00 | 0.00 | 0.00 | 34 | 1005.8 |
| 20260505212018 | 82 | 158 | 6.1 | 14.8 | 0.00 | 0.00 | 0.00 | 36 | 1005.7 |
| 20260505211517 | 83 | 203 | 6.1 | 13.9 | 0.00 | 0.00 | 0.00 | 34 | 1005.9 |
| 20260505211017 | 83 | 203 | 5.2 | 12.2 | 0.00 | 0.00 | 0.00 | 34 | 1005.8 |
| 20260505210517 | 84 | 225 | 5.2 | 20.9 | 0.00 | 0.00 | 0.00 | 35 | 1005.7 |
| 20260505210017 | 84 | 203 | 4.3 | 15.6 | 0.00 | 0.00 | 0.00 | 34 | 1005.6 |
| 20260505205517 | 84 | 203 | 8.7 | 22.6 | 0.00 | 0.00 | 0.00 | 33 | 1005.6 |
| 20260505205017 | 85 | 203 | 7.0 | 16.5 | 0.00 | 0.00 | 0.00 | 34 | 1005.3 |
| 20260505204517 | 85 | 225 | 5.2 | 15.6 | 0.00 | 0.00 | 0.00 | 34 | 1005.4 |
| 20260505204017 | 85 | 203 | 6.1 | 13.9 | 0.00 | 0.00 | 0.00 | 34 | 1005.5 |
| 20260505203517 | 85 | 203 | 6.1 | 13.0 | 0.00 | 0.00 | 0.00 | 35 | 1005.5 |
| 20260505203016 | 85 | 180 | 6.1 | 15.6 | 0.00 | 0.00 | 0.00 | 35 | 1005.6 |
| 20260505202518 | 85 | 158 | 5.2 | 17.4 | 0.00 | 0.00 | 0.00 | 35 | 1005.5 |
| 20260505202017 | 84 | 203 | 6.1 | 14.8 | 0.00 | 0.00 | 0.00 | 36 | 1005.6 |
| 20260505201516 | 84 | 180 | 5.2 | 13.9 | 0.00 | 0.00 | 0.00 | 36 | 1005.6 |
| 20260505201016 | 84 | 225 | 4.3 | 12.2 | 0.00 | 0.00 | 0.00 | 36 | 1005.8 |
| 20260505200516 | 84 | 203 | 6.1 | 13.0 | 0.00 | 0.00 | 0.00 | 37 | 1006.1 |
| 20260505200016 | 84 | 225 | 6.1 | 13.0 | 0.00 | 0.00 | 0.00 | 37 | 1006.1 |
| 20260505195517 | 84 | 203 | 5.2 | 10.4 | 0.00 | 0.00 | 0.00 | 35 | 1006.2 |
| 20260505195016 | 84 | 203 | 6.1 | 15.6 | 0.00 | 0.00 | 0.00 | 36 | 1006.1 |
| 20260505194516 | 84 | 225 | 5.2 | 11.3 | 0.00 | 0.00 | 0.00 | 36 | 1006.1 |
| 20260505194016 | 84 | 203 | 7.0 | 12.2 | 0.00 | 0.00 | 0.00 | 36 | 1006.2 |
| 20260505193517 | 85 | 203 | 6.1 | 17.4 | 0.00 | 0.00 | 0.00 | 38 | 1006.3 |
| 20260505193016 | 84 | 225 | 5.2 | 13.0 | 0.00 | 0.00 | 0.00 | 38 | 1006.3 |
| 20260505192516 | 84 | 225 | 6.1 | 19.1 | 0.00 | 0.00 | 0.00 | 36 | 1006.3 |
| 20260505192016 | 84 | 203 | 7.0 | 13.0 | 0.00 | 0.00 | 0.00 | 37 | 1006.5 |
| 20260505191516 | 84 | 203 | 6.1 | 15.6 | 0.00 | 0.00 | 0.00 | 36 | 1006.4 |
| 20260505191016 | 85 | 203 | 7.8 | 14.8 | 0.00 | 0.00 | 0.00 | 37 | 1006.6 |
| 20260505190516 | 85 | 225 | 7.0 | 13.0 | 0.00 | 0.00 | 0.00 | 37 | 1006.7 |
| 20260505190016 | 85 | 180 | 5.2 | 14.8 | 0.00 | 0.00 | 0.00 | 40 | 1006.7 |
| 20260505185516 | 85 | 203 | 7.0 | 18.2 | 0.00 | 0.00 | 0.00 | 38 | 1006.8 |
| 20260505185016 | 85 | 203 | 5.2 | 13.0 | 0.00 | 0.00 | 0.00 | 39 | 1006.9 |
| 20260505184516 | 85 | 203 | 5.2 | 13.9 | 0.00 | 0.00 | 0.00 | 38 | 1006.9 |
| 20260505184016 | 85 | 225 | 6.1 | 12.2 | 0.00 | 0.00 | 0.00 | 39 | 1007.0 |
| 20260505183516 | 84 | 225 | 6.1 | 12.2 | 0.00 | 0.00 | 0.00 | 38 | 1007.2 |
| 20260505183016 | 84 | 225 | 6.1 | 17.4 | 0.00 | 0.00 | 0.00 | 39 | 1007.1 |
| 20260505182516 | 83 | 203 | 4.3 | 11.3 | 0.00 | 0.00 | 0.00 | 41 | 1007.3 |
| 20260505182016 | 83 | 203 | 8.7 | 19.1 | 0.00 | 0.00 | 0.00 | 38 | 1007.4 |
| 20260505181516 | 84 | 225 | 7.8 | 14.8 | 0.00 | 0.00 | 0.00 | 38 | 1007.5 |
| 20260505181016 | 84 | 225 | 7.0 | 14.8 | 0.00 | 0.00 | 0.00 | 40 | 1007.6 |
| 20260505180516 | 83 | 203 | 8.7 | 24.3 | 0.00 | 0.00 | 0.00 | 40 | 1007.5 |
| 20260505180016 | 83 | 203 | 7.8 | 20.0 | 0.00 | 0.00 | 0.00 | 40 | 1007.4 |
| 20260505175516 | 83 | 225 | 8.7 | 18.2 | 0.00 | 0.00 | 0.00 | 40 | 1007.6 |
| 20260505175016 | 83 | 203 | 7.0 | 23.5 | 0.00 | 0.00 | 0.00 | 41 | 1007.5 |
| 20260505174516 | 83 | 203 | 7.8 | 15.6 | 0.00 | 0.00 | 0.00 | 45 | 1007.6 |
| 20260505174016 | 83 | 225 | 7.0 | 13.0 | 0.00 | 0.00 | 0.00 | 44 | 1007.7 |
| 20260505173517 | 83 | 180 | 5.2 | 14.8 | 0.00 | 0.00 | 0.00 | 43 | 1007.9 |
| 20260505173016 | 83 | 248 | 6.1 | 12.2 | 0.00 | 0.00 | 0.00 | 45 | 1007.7 |
| 20260505172516 | 82 | 225 | 6.1 | 18.2 | 0.00 | 0.00 | 0.00 | 46 | 1007.8 |
| 20260505172016 | 82 | 225 | 7.0 | 13.0 | 0.00 | 0.00 | 0.00 | 44 | 1007.8 |
| 20260505171516 | 83 | 203 | 6.1 | 15.6 | 0.00 | 0.00 | 0.00 | 42 | 1007.8 |
| 20260505171016 | 82 | 203 | 4.3 | 10.4 | 0.00 | 0.00 | 0.00 | 48 | 1007.9 |
| 20260505170516 | 82 | 203 | 5.2 | 10.4 | 0.00 | 0.00 | 0.00 | 45 | 1007.9 |
| 20260505170016 | 81 | 225 | 6.1 | 12.2 | 0.00 | 0.00 | 0.00 | 47 | 1008.0 |
| 20260505165516 | 81 | 225 | 6.1 | 13.0 | 0.00 | 0.00 | 0.00 | 46 | 1008.0 |
| 20260505165017 | 81 | 225 | 6.1 | 13.9 | 0.00 | 0.00 | 0.00 | 46 | 1008.2 |
| 20260505164516 | 81 | 203 | 7.0 | 13.9 | 0.00 | 0.00 | 0.00 | 46 | 1008.3 |
| 20260505164016 | 81 | 180 | 5.2 | 13.9 | 0.00 | 0.00 | 0.00 | 46 | 1008.4 |
| 20260505163516 | 81 | 225 | 6.1 | 13.0 | 0.00 | 0.00 | 0.00 | 47 | 1008.5 |
| 20260505163016 | 80 | 203 | 5.2 | 10.4 | 0.00 | 0.00 | 0.00 | 48 | 1008.5 |
| 20260505162516 | 80 | 225 | 6.1 | 13.9 | 0.00 | 0.00 | 0.00 | 47 | 1008.6 |
| 20260505162016 | 81 | 203 | 7.0 | 14.8 | 0.00 | 0.00 | 0.00 | 46 | 1008.6 |
| 20260505161516 | 80 | 180 | 4.3 | 12.2 | 0.00 | 0.00 | 0.00 | 49 | 1008.7 |
| 20260505161016 | 80 | 203 | 5.2 | 9.6 | 0.00 | 0.00 | 0.00 | 48 | 1008.9 |
| 20260505160516 | 80 | 203 | 5.2 | 15.6 | 0.00 | 0.00 | 0.00 | 52 | 1009.0 |
| 20260505153016 | 79 | 225 | 4.3 | 11.3 | 0.00 | 0.00 | 0.00 | 50 | 1009.3 |
| 20260505152516 | 79 | 203 | 6.1 | 14.8 | 0.00 | 0.00 | 0.00 | 49 | 1009.4 |
| 20260505152016 | 79 | 248 | 6.1 | 13.0 | 0.00 | 0.00 | 0.00 | 52 | 1009.3 |
| 20260505151516 | 79 | 225 | 4.3 | 13.0 | 0.00 | 0.00 | 0.00 | 51 | 1009.4 |
| 20260505151016 | 78 | 203 | 5.2 | 13.9 | 0.00 | 0.00 | 0.00 | 52 | 1009.3 |
| 20260505150516 | 79 | 180 | 3.5 | 13.9 | 0.00 | 0.00 | 0.00 | 53 | 1009.4 |
| 20260505140516 | 74 | 225 | 4.3 | 9.6 | 0.00 | 0.00 | 0.00 | 60 | 1009.7 |
| 20260505125016 | 68 | 248 | 2.6 | 6.1 | 0.00 | 0.00 | 0.00 | 68 | 1009.8 |
| 20260505124516 | 67 | 248 | 0.9 | 3.5 | 0.00 | 0.00 | 0.00 | 71 | 1009.9 |
| 20260505124016 | 66 | 225 | 1.7 | 3.5 | 0.00 | 0.00 | 0.00 | 73 | 1009.8 |
| 20260505123516 | 65 | 158 | 0.9 | 4.3 | 0.00 | 0.00 | 0.00 | 72 | 1009.7 |
| 20260505123016 | 64 | 203 | 0.9 | 4.3 | 0.00 | 0.00 | 0.00 | 74 | 1009.4 |
| 20260505122516 | 63 | 180 | 0.9 | 2.6 | 0.00 | 0.00 | 0.00 | 75 | 1009.6 |
| 20260505122016 | 63 | 203 | 1.7 | 4.3 | 0.00 | 0.00 | 0.00 | 77 | 1009.6 |
| 20260505121516 | 61 | 203 | 0.9 | 3.5 | 0.00 | 0.00 | 0.00 | 80 | 1009.6 |
| 20260505121016 | 60 | 180 | 0.9 | 5.2 | 0.00 | 0.00 | 0.00 | 81 | 1009.6 |
| 20260505120516 | 59 | 0.0 | 2.6 | 0.00 | 0.00 | 0.00 | 83 | 1009.6 | |
| 20260505120016 | 58 | 203 | 1.7 | 4.3 | 0.00 | 0.00 | 0.00 | 85 | 1009.5 |
| 20260505115516 | 57 | 0.0 | 1.7 | 0.00 | 0.00 | 0.00 | 87 | 1009.5 | |
| 20260505115015 | 56 | 225 | 1.7 | 5.2 | 0.00 | 0.00 | 0.00 | 87 | 1009.7 |
| 20260505114515 | 55 | 180 | 1.7 | 4.3 | 0.00 | 0.00 | 0.00 | 89 | 1009.8 |
| 20260505114015 | 54 | 0.0 | 0.9 | 0.00 | 0.00 | 0.00 | 89 | 1009.7 | |
| 20260505113516 | 54 | 0.0 | 0.0 | 0.00 | 0.00 | 0.00 | 87 | 1009.8 | |
| 20260505113016 | 54 | 0.0 | 0.9 | 0.00 | 0.00 | 0.00 | 87 | 1009.7 | |
| 20260505112515 | 54 | 225 | 0.9 | 2.6 | 0.00 | 0.00 | 0.00 | 87 | 1009.8 |
| 20260505112015 | 54 | 225 | 1.7 | 2.6 | 0.00 | 0.00 | 0.00 | 86 | 1009.7 |
| 20260505111515 | 54 | 180 | 0.9 | 3.5 | 0.00 | 0.00 | 0.00 | 86 | 1009.6 |
| 20260505111016 | 54 | 0.0 | 1.7 | 0.00 | 0.00 | 0.00 | 86 | 1009.5 | |
| 20260505110515 | 54 | 180 | 0.9 | 3.5 | 0.00 | 0.00 | 0.00 | 86 | 1009.6 |
| 20260505102015 | 48 | 0.0 | 3.5 | 0.00 | 0.00 | 0.00 | 92 | 1009.9 | |
| 20260505101515 | 47 | 0.0 | 2.6 | 0.00 | 0.00 | 0.00 | 92 | 1009.8 | |
| 20260505101015 | 46 | 0.0 | 0.0 | 0.00 | 0.00 | 0.00 | 92 | 1009.6 | |
| 20260505100515 | 46 | 0.0 | 0.9 | 0.00 | 0.00 | 0.00 | 92 | 1009.6 | |
| 20260505100015 | 46 | 0.0 | 0.0 | 0.00 | 0.00 | 0.00 | 91 | 1009.5 | |
| 20260505095515 | 46 | 0.0 | 0.0 | 0.00 | 0.00 | 0.00 | 91 | 1009.5 | |
| 20260505095015 | 46 | 0.0 | 0.0 | 0.00 | 0.00 | 0.00 | 91 | 1009.5 | |
| 20260505094515 | 46 | 0.0 | 0.0 | 0.00 | 0.00 | 0.00 | 91 | 1009.3 | |
| 20260505094015 | 46 | 0.0 | 0.0 | 0.00 | 0.00 | 0.00 | 91 | 1009.2 | |
| 20260505093515 | 46 | 0.0 | 0.0 | 0.00 | 0.00 | 0.00 | 90 | 1009.2 | |
| 20260505093015 | 46 | 0.0 | 0.0 | 0.00 | 0.00 | 0.00 | 90 | 1009.3 | |
| 20260505092515 | 46 | 0.0 | 0.0 | 0.00 | 0.00 | 0.00 | 90 | 1009.2 | |
| 20260505092015 | 46 | 0.0 | 0.0 | 0.00 | 0.00 | 0.00 | 90 | 1008.9 | |
| 20260505091515 | 46 | 0.0 | 0.0 | 0.00 | 0.00 | 0.00 | 89 | 1009.0 | |
| 20260505091015 | 46 | 0.0 | 0.0 | 0.00 | 0.00 | 0.00 | 89 | 1008.9 | |
| 20260505090515 | 46 | 0.0 | 0.0 | 0.00 | 0.00 | 0.00 | 89 | 1008.9 | |
| 20260505090015 | 46 | 0.0 | 0.0 | 0.00 | 0.00 | 0.00 | 89 | 1008.9 | |
| 20260505085515 | 46 | 0.0 | 0.0 | 0.00 | 0.00 | 0.00 | 89 | 1008.9 | |
| 20260505085015 | 46 | 0.0 | 0.0 | 0.00 | 0.00 | 0.00 | 89 | 1008.9 | |
| 20260505084515 | 47 | 0.0 | 0.0 | 0.00 | 0.00 | 0.00 | 89 | 1008.9 | |
| 20260505084015 | 47 | 0.0 | 0.0 | 0.00 | 0.00 | 0.00 | 89 | 1009.0 | |
| 20260505083515 | 47 | 0.0 | 0.0 | 0.00 | 0.00 | 0.00 | 89 | 1009.1 | |
| 20260505083015 | 47 | 0.0 | 0.0 | 0.00 | 0.00 | 0.00 | 89 | 1009.1 | |
| 20260505082515 | 47 | 0.0 | 0.0 | 0.00 | 0.00 | 0.00 | 88 | 1009.0 | |
| 20260505082015 | 47 | 0.0 | 0.0 | 0.00 | 0.00 | 0.00 | 88 | 1009.1 | |
| 20260505081515 | 47 | 0.0 | 0.0 | 0.00 | 0.00 | 0.00 | 88 | 1009.0 | |
| 20260505081015 | 47 | 0.0 | 0.0 | 0.00 | 0.00 | 0.00 | 87 | 1009.1 | |
| 20260505080515 | 47 | 0.0 | 0.0 | 0.00 | 0.00 | 0.00 | 87 | 1009.1 | |
| 20260505080015 | 47 | 0.0 | 0.0 | 0.00 | 0.00 | 0.00 | 87 | 1008.9 | |
| 20260505075515 | 47 | 0.0 | 0.0 | 0.00 | 0.00 | 0.00 | 87 | 1009.0 | |
| 20260505075015 | 48 | 0.0 | 0.0 | 0.00 | 0.00 | 0.00 | 87 | 1009.1 | |
| 20260505074515 | 48 | 0.0 | 0.0 | 0.00 | 0.00 | 0.00 | 87 | 1009.1 | |
| 20260505074015 | 48 | 0.0 | 0.0 | 0.00 | 0.00 | 0.00 | 87 | 1009.1 | |
| 20260505073515 | 48 | 0.0 | 0.0 | 0.00 | 0.00 | 0.00 | 87 | 1009.1 | |
| 20260505073015 | 48 | 0.0 | 0.0 | 0.00 | 0.00 | 0.00 | 86 | 1009.2 | |
| 20260505072515 | 48 | 0.0 | 0.0 | 0.00 | 0.00 | 0.00 | 86 | 1009.1 | |
| 20260505072015 | 49 | 0.0 | 0.0 | 0.00 | 0.00 | 0.00 | 85 | 1009.2 | |
| 20260505071515 | 49 | 0.0 | 0.0 | 0.00 | 0.00 | 0.00 | 85 | 1009.2 | |
| 20260505071015 | 49 | 0.0 | 0.0 | 0.00 | 0.00 | 0.00 | 85 | 1009.1 | |
| 20260505070515 | 49 | 0.0 | 0.0 | 0.00 | 0.00 | 0.00 | 85 | 1009.1 | |
| 20260505070015 | 49 | 0.0 | 0.0 | 0.00 | 0.00 | 0.00 | 85 | 1009.1 | |
| 20260505065515 | 49 | 0.0 | 0.0 | 0.00 | 0.00 | 0.00 | 85 | 1009.1 | |
| 20260505065015 | 49 | 0.0 | 0.0 | 0.00 | 0.00 | 0.00 | 85 | 1009.1 | |
| 20260505064515 | 49 | 0.0 | 0.0 | 0.00 | 0.00 | 0.00 | 84 | 1009.0 | |
| 20260505064015 | 50 | 0.0 | 0.0 | 0.00 | 0.00 | 0.00 | 84 | 1009.0 | |
| 20260505063515 | 50 | 0.0 | 0.0 | 0.00 | 0.00 | 0.00 | 85 | 1009.0 | |
| 20260505063015 | 50 | 0.0 | 0.0 | 0.00 | 0.00 | 0.00 | 85 | 1009.0 | |
| 20260505062515 | 50 | 0.0 | 0.0 | 0.00 | 0.00 | 0.00 | 85 | 1009.0 | |
| 20260505062015 | 50 | 0.0 | 0.0 | 0.00 | 0.00 | 0.00 | 84 | 1009.1 | |
| 20260505061515 | 50 | 0.0 | 0.0 | 0.00 | 0.00 | 0.00 | 83 | 1009.1 | |
| 20260505061015 | 50 | 0.0 | 0.0 | 0.00 | 0.00 | 0.00 | 84 | 1009.1 | |
| 20260505060516 | 50 | 0.0 | 0.0 | 0.00 | 0.00 | 0.00 | 83 | 1009.1 | |
| 20260505060015 | 50 | 0.0 | 0.0 | 0.00 | 0.00 | 0.00 | 83 | 1009.2 | |
| 20260505055515 | 51 | 0.0 | 0.0 | 0.00 | 0.00 | 0.00 | 83 | 1009.2 | |
| 20260505055015 | 51 | 0.0 | 0.0 | 0.00 | 0.00 | 0.00 | 82 | 1009.3 | |
| 20260505054515 | 51 | 0.0 | 0.0 | 0.00 | 0.00 | 0.00 | 83 | 1009.3 | |
| 20260505054015 | 51 | 0.0 | 0.0 | 0.00 | 0.00 | 0.00 | 83 | 1009.3 | |
| 20260505053515 | 51 | 0.0 | 0.0 | 0.00 | 0.00 | 0.00 | 83 | 1009.3 | |
| 20260505053015 | 52 | 0.0 | 0.0 | 0.00 | 0.00 | 0.00 | 82 | 1009.4 | |
| 20260505052515 | 52 | 0.0 | 0.0 | 0.00 | 0.00 | 0.00 | 81 | 1009.4 | |
| 20260505052015 | 52 | 0.0 | 0.0 | 0.00 | 0.00 | 0.00 | 80 | 1009.4 | |
| 20260505051515 | 52 | 0.0 | 0.0 | 0.00 | 0.00 | 0.00 | 80 | 1009.5 | |
| 20260505051017 | 52 | 0.0 | 0.0 | 0.00 | 0.00 | 0.00 | 82 | 1009.4 | |
| 20260505050517 | 52 | 0.0 | 0.9 | 0.00 | 0.00 | 0.00 | 79 | 1009.4 | |
| 20260505041517 | 54 | 0.0 | 0.0 | 0.00 | 0.00 | 0.00 | 78 | 1009.4 | |
| 20260505041017 | 54 | 0.0 | 0.0 | 0.00 | 0.00 | 0.00 | 75 | 1009.4 | |
| 20260505040517 | 54 | 0.0 | 0.9 | 0.00 | 0.00 | 0.00 | 74 | 1009.5 | |
| 20260505040017 | 54 | 0.0 | 0.0 | 0.00 | 0.00 | 0.00 | 74 | 1009.5 | |
| 20260505035516 | 55 | 0.0 | 0.0 | 0.00 | 0.00 | 0.00 | 71 | 1009.6 | |
| 20260505035016 | 55 | 0.0 | 0.0 | 0.00 | 0.00 | 0.00 | 69 | 1009.6 | |
| 20260505034516 | 55 | 0.0 | 0.0 | 0.00 | 0.00 | 0.00 | 69 | 1009.6 | |
| 20260505034016 | 55 | 0.0 | 1.7 | 0.00 | 0.00 | 0.00 | 68 | 1009.5 | |
| 20260505033516 | 56 | 0.0 | 0.0 | 0.00 | 0.00 | 0.00 | 68 | 1009.6 | |
| 20260505033017 | 56 | 0.0 | 0.0 | 0.00 | 0.00 | 0.00 | 66 | 1009.6 | |
| 20260505032516 | 56 | 0.0 | 0.0 | 0.00 | 0.00 | 0.00 | 65 | 1009.6 | |
| 20260505032016 | 57 | 0.0 | 0.0 | 0.00 | 0.00 | 0.00 | 65 | 1009.6 | |
| 20260505031516 | 57 | 0.0 | 0.0 | 0.00 | 0.00 | 0.00 | 66 | 1009.6 | |
| 20260505031016 | 58 | 0.0 | 0.9 | 0.00 | 0.00 | 0.00 | 65 | 1009.6 | |
| 20260505030515 | 58 | 0.0 | 0.9 | 0.00 | 0.00 | 0.00 | 64 | 1009.6 | |
| 20260505030016 | 58 | 0.0 | 0.0 | 0.00 | 0.00 | 0.00 | 63 | 1009.6 | |
| 20260505025516 | 59 | 0.0 | 0.9 | 0.00 | 0.00 | 0.00 | 60 | 1009.5 | |
| 20260505025015 | 59 | 0.0 | 1.7 | 0.00 | 0.00 | 0.00 | 60 | 1009.5 | |
| 20260505024515 | 59 | 0.0 | 0.9 | 0.00 | 0.00 | 0.00 | 59 | 1009.4 | |
| 20260505024016 | 59 | 0.0 | 0.9 | 0.00 | 0.00 | 0.00 | 59 | 1009.5 | |
| 20260505023515 | 59 | 0.0 | 2.6 | 0.00 | 0.00 | 0.00 | 58 | 1009.5 | |
| 20260505023015 | 60 | 0.0 | 0.0 | 0.00 | 0.00 | 0.00 | 59 | 1009.5 | |
| 20260505022515 | 60 | 0.0 | 0.0 | 0.00 | 0.00 | 0.00 | 58 | 1009.6 | |
| 20260505022015 | 60 | 0.0 | 0.9 | 0.00 | 0.00 | 0.00 | 57 | 1009.6 | |
| 20260505021515 | 60 | 180 | 0.9 | 4.3 | 0.00 | 0.00 | 0.00 | 57 | 1009.6 |
| 20260505021015 | 60 | 158 | 0.9 | 3.5 | 0.00 | 0.00 | 0.00 | 57 | 1009.6 |
| 20260505020515 | 60 | 158 | 0.9 | 3.5 | 0.00 | 0.00 | 0.00 | 57 | 1009.7 |
| 20260505020015 | 61 | 0.0 | 1.7 | 0.00 | 0.00 | 0.00 | 56 | 1009.7 | |
| 20260505015515 | 61 | 0.0 | 3.5 | 0.00 | 0.00 | 0.00 | 55 | 1009.6 | |
| 20260505015015 | 61 | 0.0 | 3.5 | 0.00 | 0.00 | 0.00 | 55 | 1009.6 | |
| 20260505014515 | 61 | 180 | 0.9 | 3.5 | 0.00 | 0.00 | 0.00 | 55 | 1009.5 |